DW9442 Weather Reports


time (UTC)temp
C
wind
direction
speed
KPH
gust
KPH
rain 1hr
cm
rain 24hr
cm
rain mn
cm
humidity
%
barometer
mb
20260507101508 17 242 3.2 8.0 0.00 1.60 0.00 71 1013.1
20260507100042 17 331 0.0 6.4 0.00 1.60 0.00 70 1013.3
20260507094510 16 102 0.0 9.7 0.00 1.68 0.00 74 1013.3
20260507093039 16 186 3.2 9.7 0.00 1.68 0.00 73 1013.4
20260507091504 15 161 0.0 3.2 0.00 1.68 0.00 76 1013.4
20260507090039 15 184 1.6 4.8 0.00 1.68 0.00 78 1013.5
20260507084513 14 193 4.8 8.0 0.00 1.93 0.00 80 1013.5
20260507083042 13 213 0.0 4.8 0.00 1.93 0.00 79 1013.5
20260507081524 13 200 4.8 8.0 0.00 1.93 0.00 78 1013.4
20260507080101 13 84 0.0 4.8 0.00 1.93 0.00 82 1013.5
20260507074527 12 63 1.6 11.3 0.00 2.41 0.00 82 1013.4
20260507073058 12 8 3.2 8.0 0.00 2.41 0.00 85 1013.5
20260507071520 12 330 0.0 4.8 0.00 2.41 0.00 90 1013.4
20260507070109 11 34 1.6 4.8 0.00 2.41 0.00 91 1013.3
20260507064532 11 68 3.2 4.8 0.00 2.49 0.00 93 1013.3
20260507063006 10 61 1.6 3.2 0.00 2.49 0.00 94 1013.4
20260507061535 10 6 0.0 1.6 0.00 2.49 0.00 95 1013.3
20260507060004 10 97 0.0 1.6 0.00 2.49 0.00 95 1013.2
20260507054541 10 61 0.0 3.2 0.00 2.49 0.00 96 1013.2
20260507053007 10 289 0.0 1.6 0.00 2.49 0.00 96 1013.0
20260507051534 10 289 0.0 3.2 0.00 2.49 0.00 96 1012.9
20260507044530 10 109 0.0 1.6 0.00 2.49 0.00 96 1012.5
20260507043006 10 40 0.0 1.6 0.00 2.49 0.00 96 1012.4
20260507041544 9 40 0.0 0.0 0.00 2.49 0.00 96 1012.3
20260507040020 9 40 0.0 3.2 0.00 2.49 0.00 96 1012.2
20260507034557 9 21 0.0 1.6 0.00 2.49 0.00 96 1012.2
20260507033035 9 340 0.0 1.6 0.00 2.49 0.00 96 1012.1
20260507031522 9 44 0.0 3.2 0.00 2.49 0.00 96 1012.0
20260507030011 9 302 0.0 0.0 0.00 2.49 0.00 96 1012.1
20260507024552 9 302 0.0 0.0 0.00 2.49 0.00 96 1012.1
20260507023040 9 302 0.0 1.6 0.00 2.49 0.00 96 1012.1
20260507021525 10 302 0.0 1.6 0.00 2.49 0.00 96 1012.2
20260507020019 9 302 0.0 1.6 0.00 2.49 0.00 96 1012.1
20260507014556 9 302 0.0 0.0 0.00 2.49 0.00 96 1012.0
20260507013046 8 302 0.0 1.6 0.00 2.49 0.00 96 1011.9
20260507011522 9 128 0.0 1.6 0.00 2.49 0.00 96 1011.9
20260507010109 9 127 0.0 1.6 0.00 2.49 0.00 96 1011.9
20260507004549 9 128 0.0 1.6 0.00 2.49 0.00 95 1011.9
20260507003032 10 128 0.0 1.6 0.00 2.49 0.00 95 1012.0
20260507001507 10 257 0.0 1.6 0.00 2.49 0.00 95 1012.0
20260507000053 10 347 0.0 1.6 0.00 2.49 0.00 96 1012.0
20260506234530 10 332 0.0 1.6 0.00 2.49 0.00 96 1012.0
20260506233013 10 328 0.0 1.6 0.00 2.49 0.00 95 1011.9
20260506231619 10 328 0.0 1.6 0.00 2.49 0.00 95 1012.0
20260506230044 10 328 0.0 1.6 0.00 2.49 0.00 95 1012.0
20260506224528 10 328 0.0 0.0 0.00 2.49 0.00 95 1012.1
20260506223014 10 328 0.0 1.6 0.00 2.49 0.00 95 1012.0
20260506221600 10 328 0.0 0.0 0.00 2.49 0.00 95 1012.0
20260506220041 10 328 0.0 0.0 0.00 2.49 0.00 95 1011.9
20260506214521 10 328 0.0 3.2 0.00 2.49 2.49 95 1011.7
20260506213003 10 328 1.6 1.6 0.00 2.49 2.49 95 1011.7
20260506211549 10 304 0.0 3.2 0.00 2.49 2.49 95 1011.8
20260506210032 10 311 0.0 0.0 0.00 2.49 2.49 95 1011.7
20260506204516 10 311 0.0 0.0 0.00 2.49 2.49 95 1011.7
20260506203052 10 311 0.0 3.2 0.00 2.49 2.49 95 1011.5
20260506201643 11 306 0.0 1.6 0.00 2.49 2.49 95 1011.5
20260506200037 11 305 0.0 1.6 0.00 2.49 2.49 95 1011.4
20260506194505 11 262 0.0 1.6 0.00 2.54 2.49 94 1011.3
20260506193047 11 262 0.0 1.6 0.00 2.54 2.49 94 1011.2
20260506191535 12 4 0.0 1.6 0.00 2.54 2.49 94 1011.2
20260506190019 12 4 0.0 0.0 0.00 2.54 2.49 94 1011.1
20260506184625 12 4 0.0 1.6 0.00 2.69 2.49 94 1010.8
20260506183036 12 4 0.0 1.6 0.00 2.69 2.49 93 1010.8
20260506181516 12 4 0.0 0.0 0.00 2.69 2.49 93 1010.7
20260506180051 12 4 0.0 1.6 0.00 2.69 2.49 92 1010.5
20260506174532 13 108 0.0 1.6 0.00 2.77 2.49 92 1010.4
20260506173011 13 63 0.0 1.6 0.00 2.77 2.49 91 1010.4
20260506171553 13 81 0.0 3.2 0.00 2.77 2.49 91 1010.2
20260506170026 12 75 1.6 3.2 0.00 2.77 2.49 90 1010.0
20260506164505 12 51 0.0 3.2 0.00 2.82 2.49 92 1010.0
20260506163043 12 48 1.6 3.2 0.03 2.82 2.49 92 1010.0
20260506161515 12 49 4.8 8.0 0.05 2.82 2.49 92 1010.0
20260506160107 12 30 4.8 14.5 0.15 2.82 2.49 92 1010.0
20260506154523 12 63 8.0 17.7 0.25 2.82 2.49 94 1010.0
20260506153058 12 86 8.0 12.9 0.36 2.79 2.46 95 1010.3
20260506151527 12 41 0.0 14.5 0.48 2.77 2.44 95 1010.4
20260506150100 12 64 3.2 6.4 0.84 2.69 2.34 94 1010.5
20260506144532 12 90 1.6 4.8 0.89 2.57 2.21 94 1010.7
20260506143059 12 105 3.2 6.4 0.81 2.44 2.11 94 1010.4
20260506141529 12 321 0.0 4.8 0.71 2.31 1.96 94 1010.2
20260506140159 12 307 1.6 11.3 0.51 1.85 1.52 94 1010.4
20260506134525 12 282 1.6 8.0 0.43 1.70 1.35 93 1010.4
20260506133051 12 304 0.0 8.0 0.38 1.65 1.27 92 1010.5
20260506131511 13 195 0.0 8.0 0.33 1.57 1.22 92 1010.6
20260506130039 13 255 4.8 8.0 0.05 1.32 0.97 89 1010.6
20260506124507 13 105 0.0 3.2 0.00 1.30 0.89 87 1010.6
20260506123042 13 62 1.6 4.8 0.00 1.30 0.89 88 1010.5
20260506121505 13 131 3.2 6.4 0.00 1.30 0.89 87 1010.7
20260506120104 14 150 0.0 4.8 0.00 1.30 0.89 89 1010.7
20260506114509 13 117 0.0 4.8 0.03 1.55 0.89 90 1011.0
20260506113039 13 17 0.0 3.2 0.03 1.55 0.89 91 1011.0
20260506111509 12 266 0.0 3.2 0.03 1.55 0.89 91 1011.2
20260506110041 12 150 0.0 0.0 0.03 1.55 0.89 91 1011.5
20260506104511 12 150 0.0 1.6 0.00 1.57 0.89 91 1011.7
20260506103043 12 277 0.0 3.2 0.00 1.57 0.89 91 1011.8